Regional Weather Roundup
Issued by NWS

Home | Current Version | Previous Version | Graphics & Text | Print | Product List | Glossary On
Versions: 1 2 3 4 5 6 7 8 9 10 11 12 13 14 15 16 17 18 19 20 21 22 23 24 25 26 27 28 29 30 31 32 33 34 35 36 37 38 39 40 41 42 43 44 45 46 47 48 49 50
000
ASUS43 KMPX 312001
RWRMN
WEATHER ROUNDUP FOR MINNESOTA
NATIONAL WEATHER SERVICE TWIN CITIES/CHANHASSEN MN
300 PM CDT WED AUG 31 2016


NOTE: "FAIR" INDICATES FEW OR NO CLOUDS BELOW 12,000 FEET WITH NO
SIGNIFICANT WEATHER AND/OR OBSTRUCTIONS TO VISIBILITY. N/A MEANS
CURRENT SKY AND/OR WEATHER CONDITIONS ARE NOT AVAILABLE.

MNZ060>063-068>070-312100-
   Twin Cities Metro

CITY           SKY/WX    TMP DP  RH WIND       PRES   REMARKS
TWIN CITIES    MOSUNNY   79  50  36 N14G22    30.18F
ST PAUL        SUNNY     77  51  40 N10       30.19F
CRYSTAL        SUNNY     78  49  35 N8        30.18F
BLAINE         SUNNY     79  52  38 N7        30.19F
LAKEVILLE      SUNNY     75  54  46 N6        30.19F
EDEN PRAIRIE   SUNNY     79  53  40 NW10      30.18F
LAKEVILLE      SUNNY     75  54  46 N6        30.19F
SOUTH ST PAUL  SUNNY     77  49  36 N7        30.18F
LAKE ELMO      FAIR      75  54  46 N8        30.20F
$$
MNZ001>005-007-008-013>017-022>024-027-028-312100-
   Northwest Minnesota

CITY           SKY/WX    TMP DP  RH WIND       PRES   REMARKS
BEMIDJI        MOSUNNY   70  55  58 N7        30.24F
HALLOCK        SUNNY     73  54  49 CALM      30.25S
ROSEAU         SUNNY     70  55  60 NE9G16    30.26S
WARROAD        MOSUNNY   66  55  68 E9        30.27S
THIEF RVR FALL SUNNY     71  55  56 N8        30.25F
CROOKSTON      SUNNY     73  54  49 N7        30.24F
FOSSTON        SUNNY     73  55  53 N8        30.25F
DETROIT LAKES  SUNNY     73  52  46 N7        30.24F
MOORHEAD       SUNNY     77  48  36 NE8       30.22F
PARK RAPIDS    SUNNY     75  49  39 VRB7      30.22F
MAHNOMEN       FAIR      73  53  50 N7        30.24S
$$
MNZ006-009>011-018-025>026-312100-
   North Central Minnesota

CITY           SKY/WX    TMP DP  RH WIND       PRES   REMARKS
BAUDETTE       MOSUNNY   70  56  61 NW12      30.25F
FLAG ISLAND    PTSUNNY   66  52  59 N3        30.25F
INTL FALLS     PTSUNNY   69  52  54 N12       30.23F
WASKISH        PTSUNNY   70  55  60 N6        30.24S
BIG FORK       PTSUNNY   70  54  56 N7        30.23F
LONGVILLE      MOSUNNY   73  55  53 NW5       30.23S
GRAND RAPIDS   PTSUNNY   69  54  58 NW10      30.24F
CRANE LAKE     PTSUNNY   66  54  63 VRB6      30.24F
ORR            CLOUDY    70  52  52 CALM      30.21S
COOK           CLOUDY    68  55  64 NE5       30.23S
WALKER         FAIR      70  55  57 N8        30.23F
$$
MNZ012-019>021-037-312100-
   Northeast Minnesota

CITY           SKY/WX    TMP DP  RH WIND       PRES   REMARKS
DULUTH         MOSUNNY   73  53  49 N9        30.20F
ELY            CLOUDY    66  52  59 NW7       30.21F
HIBBING        PTSUNNY   68  52  56 N8        30.22S
EVELETH        PTSUNNY   70  52  53 NW3       30.23S
DULUTH HARBOR  PTSUNNY   75  55  50 E7        30.18F
TWO HARBORS    CLOUDY    73  57  56 NE5       30.17F
SILVER BAY     PTSUNNY   70  55  60 S5        30.18F
GRAND MARAIS     N/A     71  38  29 VRB6      30.17F
G MARAIS ARPRT CLOUDY    64  46  52 NW6       30.21F
$$
MNZ029>031-032-039>041-046>048-054>057-064-312100-
   West Central Minnesota

CITY           SKY/WX    TMP DP  RH WIND       PRES   REMARKS
FERGUS FALLS   SUNNY     77  54  44 NE7       30.21F
WHEATON        SUNNY     81  55  41 CALM      30.22S
MORRIS         SUNNY     81  54  39 NW6       30.21S
ALEXANDRIA     SUNNY     78  51  38 N9        30.23F
ELBOW LAKE     FAIR      76  56  50 N6        30.22S
WADENA         SUNNY     75  54  46 NW8       30.22F
GLENWOOD       SUNNY     77  54  44 N8        30.23S
APPLETON       SUNNY     81  54  39 CALM      30.20S
BENSON         SUNNY     81  52  36 E5        30.21S
ORTONVILLE     SUNNY     81  54  39 CALM      30.21S
MADISON        SUNNY     79  55  44 NE5       30.21S
WILLMAR        FAIR      79  57  47 N3        30.22F
$$
MNZ033>034-036-042>043-049>051-058-059-312100-
   Central Minnesota

CITY           SKY/WX    TMP DP  RH WIND       PRES   REMARKS
ST CLOUD       SUNNY     77  54  44 N5        30.20F
SAUK CENTRE    FAIR      76  52  43 N7        30.21F
PAYNESVILLE    SUNNY     78  49  35 N9        30.21F
AITKIN         SUNNY     75  46  35 N8        30.20S
PINE RIVER     SUNNY     72  54  53 N6        30.25F
BRAINERD       SUNNY     74  45  35 N12       30.21F
STAPLES        SUNNY     75  48  38 N7        30.22S
LONG PRAIRIE   FAIR      75  52  43 NW6       30.22S
LITTLE FALLS   SUNNY     75  50  41 N6        30.21F
LITCHFIELD     SUNNY     79  57  47 NE6       30.20F
BUFFALO        SUNNY     76  53  44 NW7       30.21F
MAPLE LAKE     SUNNY     77  56  48 N6        30.21F
HUTCHINSON     SUNNY     78  59  51 NW6       30.21F
$$
MNZ037-044-045-052-053-312100-
   East Central Minnesota

CITY           SKY/WX    TMP DP  RH WIND       PRES   REMARKS
PRINCETON      SUNNY     79  54  41 NW6       30.20F
MORA           SUNNY     73  52  46 NW8       30.21F
CAMBRIDGE      SUNNY     79  55  44 N8        30.18F
RUSH CITY      SUNNY     76  51  41 NW6       30.20S
MOOSE LAKE     SUNNY     73  50  43 NW7       30.18F
HINCKLEY       FAIR      73  50  43 N3        30.19F
CLOQUET        SUNNY     73  46  38 NW12      30.20S
MCGREGOR       SUNNY     73  52  46 N3        30.21F
$$
MNZ071>073-080-081-089-090-097-098-312100-
   Southwest Minnesota

CITY           SKY/WX    TMP DP  RH WIND       PRES   REMARKS
MONTEVIDEO     SUNNY     81  61  50 NE7       30.22F
GRANITE FALLS  SUNNY     80  59  48 CALM      30.22F
CANBY          SUNNY     80  55  41 NE5       30.22S
MARSHALL       SUNNY     77  58  51 E5        30.21F
REDWOOD FALLS  SUNNY     78  55  44 CALM      30.20F
OLIVIA         SUNNY     77  55  47 NW8       30.20F
WINDOM         SUNNY     77  57  50 N7        30.22S
WORTHINGTON    SUNNY     77  57  50 NE8       30.22F
JACKSON        SUNNY     77  54  44 N8        30.22F
TRACY          SUNNY     78  60  54 N6        30.22F
SLAYTON        SUNNY     77  61  57 N3        30.23F
$$
MNZ065>067-074>077-082>085-091>093-312100-
   South Central Minnesota

CITY           SKY/WX    TMP DP  RH WIND       PRES   REMARKS
MANKATO        SUNNY     76  55  48 NW8       30.20F
NEW ULM        SUNNY     75  55  50 N8        30.20S
ST JAMES       SUNNY     77  55  47 NW6       30.21F
FAIRMONT       SUNNY     77  58  51 N6        30.20F
GLENCOE        SUNNY     77  60  56 N6        30.19F
FARIBAULT      SUNNY     77  54  44 N5        30.19F
OWATONNA       SUNNY     77  54  44 N8        30.19F
WASECA         SUNNY     73  57  56 N6        30.21S
ALBERT LEA     SUNNY     77  55  47 N10       30.19F
$$
MNZ078>079-086>088-094>096-312100-
   Southeast Minnesota

CITY           SKY/WX    TMP DP  RH WIND       PRES   REMARKS
ROCHESTER      SUNNY     77  53  43 N13       30.18F
RED WING       SUNNY     79  46  31 N8        30.16F
STANTON        SUNNY     77  50  38 N7        30.18S
DODGE CENTER   SUNNY     75  52  43 N10       30.19F
WINONA         SUNNY     77  52  41 N6        30.16S
AUSTIN         SUNNY     75  54  46 N9G16     30.18F
PRESTON        SUNNY     74  49  41 N9        30.18F
$$
ABBREVIATIONS USED IN REMARKS
   TC - TEMPERATURES IN CELSIUS
  WCI - WIND CHILL INDEX
   HX - HEAT INDEX
  VSB - VISIBILITY
$$




USA.gov is the U.S. government's official web portal to all federal, state and local government web resources and services.